Find Intelsat IS-29e

NORAD ID: 41308 Int'l Des: 2016-004 Owner: INTELU Country: US operational
MEOCIRCULAR

当前视图

正在加载3D地球...

About Intelsat IS-29e

Intelsat IS-29e (NORAD 41308) is a satellite launched Jan 27, 2016 by INTELU of US. It operates in MEO, CIRCULAR orbit with a mass of 6552.00 kg.

即将过境

Passes for default location (London). Set your location on the main map for personalized predictions.

高度历史

Loading altitude history...

两行轨道根数

1 41308U 16004A 26194.78142676 .00000130 00000-0 00000+0 0 9993
2 41308 6.5636 69.9884 0002492 92.3626 84.0562 1.00622927 38547
Epoch: Jul 13, 2026 • Age: 21 hours

当前状态

高度 35679.3 km
远地点 / 近地点 N/A
速度 3.08 km/s
星下点 4.87°N, 34.76°E
发射日期 Jan 27, 2016
运行时间 10.4 years
类型 communications

技术详情

分类 Payload
质量 6552.00 kg
干质量 2946.00 kg
总质量 6552.00 kg
长度 7.50 m
直径 3.00 m
跨度 44.00 m
形状 Box + 2 panels
制造商 BOES
平台类型 BSS-702MP
阶段状态 In Orbit
所有者/国家 INTELU/US

Most Searched